DW4212 La Cabrera ES current weather conditions

sailwx.info

Wind from 355 at 3 knots gusting 6

Air temperature 10.0° C
Dewpoint 5.2° C

Last reported at 2015-Mar-03 21:39 UTC.
Time now 2015-Mar-03 22:45 UTC

Location: N 40°53' W 003°35'.
View on Google Maps.

See reports from other nearby stations

  
Tides and Currents Weather Stations Pressure Air Temp Water Temp Dewpoint Dewpoint Depression Visibility Wind Speed Wind Dir Waves Ship Positions
date/time (UTC)wind fromknots sea level pressurealtimeterstation pressurevisibilityair tempwater tempwave heightnotes
2015-Mar-03 21:39 355 3 gusting 6 10.0
2015-Mar-03 21:29 355 3 gusting 10 10.0
2015-Mar-03 21:19 333 3 gusting 7 10.0
2015-Mar-03 21:09 317 1 gusting 6 10.0
2015-Mar-03 20:59 336 1 gusting 7 10.0
2015-Mar-03 20:49 321 2 gusting 6 9.4
2015-Mar-03 20:39 005 0 gusting 5 9.4
2015-Mar-03 20:29 053 0 gusting 2 10.0
2015-Mar-03 20:19 053 10.0
2015-Mar-03 20:09 053 10.6
2015-Mar-03 19:59 053 10.6
2015-Mar-03 19:49 182 10.6
2015-Mar-03 19:39 182 0 gusting 3 11.1
2015-Mar-03 19:29 182 11.1
2015-Mar-03 19:19 182 11.1
2015-Mar-03 19:09 182 11.7
2015-Mar-03 18:59 182 11.7
2015-Mar-03 18:49 182 11.7
2015-Mar-03 18:39 182 12.2
2015-Mar-03 18:29 182 12.2
2015-Mar-03 18:19 182 12.2
2015-Mar-03 18:09 182 12.2
2015-Mar-03 17:59 182 12.8
2015-Mar-03 17:49 182 12.8
2015-Mar-03 17:39 182 13.3
2015-Mar-03 17:29 182 13.3
2015-Mar-03 17:19 182 13.9
2015-Mar-03 17:09 182 13.9
2015-Mar-03 16:59 173 0 gusting 4 14.4
2015-Mar-03 16:49 172 14.4
2015-Mar-03 16:39 163 15.0
2015-Mar-03 16:29 174 15.0
2015-Mar-03 16:19 180 0 gusting 4 15.0
2015-Mar-03 16:09 192 15.6
2015-Mar-03 15:59 178 15.6
2015-Mar-03 15:49 191 0 gusting 5 16.1
2015-Mar-03 15:39 261 0 gusting 4 15.6
2015-Mar-03 15:29 183 15.0
2015-Mar-03 15:19 198 0 gusting 5 15.0
2015-Mar-03 15:09 180 0 gusting 4 15.0
2015-Mar-03 14:59 179 0 gusting 4 15.0
2015-Mar-03 14:49 190 1 gusting 6 14.4
2015-Mar-03 14:39 165 1 gusting 6 14.4
2015-Mar-03 14:29 161 0 gusting 5 13.9
2015-Mar-03 14:19 173 0 gusting 5 12.8
2015-Mar-03 14:09 179 0 gusting 6 13.3
2015-Mar-03 13:59 159 2 gusting 7 13.3
2015-Mar-03 13:49 200 2 gusting 6 13.9
2015-Mar-03 13:39 171 0 gusting 7 13.9
2015-Mar-03 13:29 182 1 gusting 6 13.9
2015-Mar-03 13:19 173 2 gusting 7 14.4
2015-Mar-03 13:09 191 1 gusting 8 15.0
2015-Mar-03 12:59 148 1 gusting 6 14.4
2015-Mar-03 12:49 182 3 gusting 6 15.0
2015-Mar-03 12:39 186 1 gusting 5 15.0
2015-Mar-03 12:29 199 0 gusting 6 14.4
2015-Mar-03 12:19 209 14.4
2015-Mar-03 12:09 179 1 gusting 6 14.4
2015-Mar-03 11:59 083 1 gusting 6 13.9
2015-Mar-03 11:49 199 0 gusting 5 13.9
2015-Mar-03 11:39 173 1 gusting 5 13.9
2015-Mar-03 11:29 061 14.4
2015-Mar-03 11:19 175 0 gusting 5 15.0
2015-Mar-03 11:09 176 1 gusting 6 14.4
2015-Mar-03 10:59 105 13.3
2015-Mar-03 10:49 105 0 gusting 2 13.3
2015-Mar-03 10:39 085 12.8
2015-Mar-03 10:29 089 0 gusting 2 11.7
2015-Mar-03 10:19 091 11.1
2015-Mar-03 10:09 093 10.6
2015-Mar-03 09:59 092 10.0
2015-Mar-03 09:49 092 10.0
2015-Mar-03 09:39 092 9.4
2015-Mar-03 09:29 350 9.4
2015-Mar-03 09:19 350 9.4
2015-Mar-03 09:09 350 8.9
2015-Mar-03 08:59 350 8.9
2015-Mar-03 08:49 350 8.9
2015-Mar-03 08:39 350 9.4
2015-Mar-03 08:29 350 10.0
2015-Mar-03 08:19 350 10.0
2015-Mar-03 08:09 350 9.4
2015-Mar-03 07:59 350 8.3
2015-Mar-03 07:49 350 7.2
2015-Mar-03 07:39 350 7.2
2015-Mar-03 07:29 350 7.2
2015-Mar-03 07:19 350 6.7
2015-Mar-03 07:09 350 6.1
2015-Mar-03 06:59 350 6.1
2015-Mar-03 06:49 350 6.1
2015-Mar-03 06:39 350 6.1
2015-Mar-03 06:29 350 6.1
2015-Mar-03 06:19 350 6.1
2015-Mar-03 06:09 350 6.1
2015-Mar-03 05:59 350 6.1
2015-Mar-03 05:49 350 6.1
2015-Mar-03 05:39 350 6.7
2015-Mar-03 05:30 350 6.7
2015-Mar-03 05:19 350 6.7
2015-Mar-03 05:09 350 6.7
2015-Mar-03 04:59 350 6.7
2015-Mar-03 04:49 350 6.7
2015-Mar-03 04:39 350 6.7
2015-Mar-03 04:29 350 6.7
2015-Mar-03 04:19 350 6.7
2015-Mar-03 04:09 350 6.7
2015-Mar-03 03:59 350 6.7
2015-Mar-03 03:49 350 7.2
2015-Mar-03 03:39 350 7.2
2015-Mar-03 01:39 350 8.3
2015-Mar-03 01:29 350 8.3
2015-Mar-03 01:19 350 8.3
2015-Mar-03 01:09 350 8.9
2015-Mar-03 00:59 350 8.9
2015-Mar-03 00:49 350 8.9
2015-Mar-03 00:39 350 8.9
2015-Mar-03 00:29 350 8.9
2015-Mar-03 00:19 350 8.9
2015-Mar-03 00:09 350 8.9
2015-Mar-02 23:59 350 8.9
2015-Mar-02 23:49 350 8.9
2015-Mar-02 23:39 350 8.9
2015-Mar-02 23:29 350 9.4
2015-Mar-02 23:19 350 9.4
2015-Mar-02 23:09 350 9.4
2015-Mar-02 22:59 350 10.0
2015-Mar-02 22:49 350 10.6
2015-Mar-02 22:39 350 10.6
2015-Mar-02 22:29 350 11.1
2015-Mar-02 22:19 350 11.1
2015-Mar-02 22:09 350 11.1
2015-Mar-02 21:59 350 11.7
2015-Mar-02 21:49 350 11.7
2015-Mar-02 21:39 350 12.2
2015-Mar-02 21:29 355 12.2
2015-Mar-02 21:19 355 12.2
2015-Mar-02 21:09 355 12.2
2015-Mar-02 20:59 343 2 gusting 7 12.2
2015-Mar-02 20:49 360 1 gusting 3 12.2
2015-Mar-02 20:39 005 12.2
2015-Mar-02 20:29 323 0 gusting 4 12.2
2015-Mar-02 20:19 339 12.2
2015-Mar-02 20:09 178 12.2
2015-Mar-02 19:59 178 12.2
2015-Mar-02 19:49 178 12.2
2015-Mar-02 19:39 178 12.2
2015-Mar-02 19:29 178 11.7
2015-Mar-02 19:19 178 12.2
2015-Mar-02 19:09 178 12.2
2015-Mar-02 18:59 178 12.2
2015-Mar-02 18:49 178 12.2
2015-Mar-02 18:39 178 12.8
2015-Mar-02 18:29 178 12.8
2015-Mar-02 18:19 178 13.3
2015-Mar-02 18:09 178 13.3
2015-Mar-02 17:59 178 13.9
2015-Mar-02 17:49 178 13.9
2015-Mar-02 17:39 178 13.9
2015-Mar-02 17:29 178 13.9
2015-Mar-02 17:19 178 13.9
2015-Mar-02 17:09 178 13.9
2015-Mar-02 16:59 178 13.9
2015-Mar-02 16:49 178 0 gusting 4 14.4
2015-Mar-02 16:39 176 14.4
2015-Mar-02 16:29 176 15.0
2015-Mar-02 16:19 176 15.0
2015-Mar-02 16:09 176 15.0
2015-Mar-02 15:59 175 0 gusting 5 16.1
2015-Mar-02 15:49 179 0 gusting 3 16.7
2015-Mar-02 15:39 244 1 gusting 4 15.6
2015-Mar-02 15:29 101 14.4
2015-Mar-02 15:19 101 14.4
2015-Mar-02 15:09 166 0 gusting 4 14.4
2015-Mar-02 14:59 146 0 gusting 1 14.4
2015-Mar-02 14:49 160 0 gusting 6 15.0
2015-Mar-02 14:39 184 1 gusting 6 15.6
2015-Mar-02 14:29 351 0 gusting 6 15.6
2015-Mar-02 14:19 186 2 gusting 6 15.6
2015-Mar-02 14:09 184 15.6
2015-Mar-02 13:59 195 1 gusting 5 15.0
2015-Mar-02 13:39 192 1 gusting 8 14.4
2015-Mar-02 13:29 180 3 gusting 7 14.4
2015-Mar-02 13:19 215 3 gusting 7 14.4
2015-Mar-02 13:09 197 2 gusting 6 13.9
2015-Mar-02 12:59 138 1 gusting 6 13.9
2015-Mar-02 12:49 153 1 gusting 6 13.3
2015-Mar-02 12:39 170 0 gusting 6 13.3
2015-Mar-02 12:29 048 0 gusting 6 12.8
2015-Mar-02 12:19 183 1 gusting 6 12.8
2015-Mar-02 12:09 171 2 gusting 6 12.8
2015-Mar-02 11:59 180 0 gusting 5 11.7
2015-Mar-02 11:49 139 11.1
2015-Mar-02 11:39 198 0 gusting 6 10.6
2015-Mar-02 11:29 183 0 gusting 6 11.7
2015-Mar-02 11:19 076 0 gusting 3 10.6
2015-Mar-02 11:09 108 0 gusting 6 10.6
2015-Mar-02 10:59 116 0 gusting 6 11.1
2015-Mar-02 10:49 081 3 gusting 6 10.6
2015-Mar-02 10:39 206 3 gusting 9 12.2
2015-Mar-02 10:29 215 1 gusting 7 11.1
2015-Mar-02 10:19 194 0 gusting 4 11.1
2015-Mar-02 10:09 192 2 gusting 6 11.1
2015-Mar-02 09:59 193 3 gusting 5 11.7
2015-Mar-02 09:49 201 2 gusting 6 11.7
2015-Mar-02 09:39 168 1 gusting 5 12.2
2015-Mar-02 09:29 202 11.7
2015-Mar-02 09:19 180 0 gusting 4 12.8
2015-Mar-02 09:09 184 0 gusting 5 13.3
2015-Mar-02 08:59 184 0 gusting 6 13.9
2015-Mar-02 08:49 032 2 gusting 8 13.9
2015-Mar-02 08:39 010 2 gusting 6 13.9
2015-Mar-02 08:29 085 4 gusting 11 12.8
2015-Mar-02 08:19 065 2 gusting 5 11.1
2015-Mar-02 08:09 042 0 gusting 4 9.4
2015-Mar-02 07:59 164 8.9
2015-Mar-02 07:50 164 8.3
2015-Mar-02 07:39 127 8.3
2015-Mar-02 07:29 127 7.8
2015-Mar-02 07:19 127 7.8
2015-Mar-02 07:09 127 7.8
2015-Mar-02 06:59 127 7.8
2015-Mar-02 06:49 127 7.8
2015-Mar-02 06:39 127 8.3
2015-Mar-02 06:29 127 8.3
2015-Mar-02 06:19 127 8.3
2015-Mar-02 06:09 126 8.9
2015-Mar-02 05:59 070 8.9
2015-Mar-02 05:49 071 0 gusting 2 8.9
2015-Mar-02 05:39 225 8.9
2015-Mar-02 05:29 225 8.3
2015-Mar-02 05:19 225 8.9
2015-Mar-02 05:10 225 8.9
2015-Mar-02 04:59 225 8.9
2015-Mar-02 04:49 225 8.9
2015-Mar-02 04:39 225 9.4
2015-Mar-02 04:29 225 9.4
2015-Mar-02 04:19 225 9.4
2015-Mar-02 04:09 225 9.4
2015-Mar-02 03:59 225 10.0
2015-Mar-02 03:49 225 10.0
2015-Mar-02 03:39 225 10.6
2015-Mar-02 03:29 225 10.6
2015-Mar-02 03:19 225 10.6
2015-Mar-02 03:09 225 10.6
2015-Mar-02 02:59 225 11.1
2015-Mar-02 02:49 225 11.7
2015-Mar-02 02:39 225 11.7
2015-Mar-02 02:29 246 11.7
2015-Mar-02 02:19 246 12.2
2015-Mar-02 02:09 246 12.2
2015-Mar-02 01:59 246 12.2
2015-Mar-02 01:49 246 12.2
2015-Mar-02 01:39 264 1 gusting 4 12.2
2015-Mar-02 01:29 284 0 gusting 5 12.2
2015-Mar-02 01:19 269 2 gusting 5 12.2
2015-Mar-02 01:09 355 3 gusting 8 12.2
2015-Mar-02 00:59 005 1 gusting 6 12.2
2015-Mar-02 00:49 342 0 gusting 2 12.2
2015-Mar-02 00:39 311 1 gusting 6 12.2
2015-Mar-02 00:29 294 1 gusting 6 12.2
2015-Mar-02 00:19 346 12.8
2015-Mar-02 00:09 346 12.8
2015-Mar-01 23:59 279 1 gusting 6 12.8
2015-Mar-01 23:49 009 1 gusting 5 12.8
2015-Mar-01 23:39 005 1 gusting 6 12.8
2015-Mar-01 23:29 355 3 gusting 6 12.8
2015-Mar-01 23:19 040 0 gusting 3 12.8
2015-Mar-01 23:09 040 0 gusting 2 12.8
2015-Mar-01 22:59 005 12.8
2015-Mar-01 22:49 005 12.8
2015-Mar-01 22:39 005 12.8
2015-Mar-01 22:29 005 3 gusting 7 12.8
2015-Mar-01 22:09 350 12.2